User: anonymous   Login
Location: Caltech
(34.1382°N, 118.1253°W)
Time: 17:36:13
(UTC-08:00)
Language:

ADEOS II - Orbit

View from above orbital plane
View from above orbital plane
View from above satellite
View from above satellite

Ground track
Ground track

The orbit data is extracted from the following two-line orbital elements,

1 27597U 02056A   17021.60534245  .00000062  00000-0  42288-4 0  9999
2 27597  98.3502 357.5473 0001979  66.4693 293.6696 14.27262234734517
Epoch (UTC): 21 January 2017 14:31:41
Eccentricity: 0.0001979
inclination: 98.3502°
perigee height: 799 km
apogee height: 802 km
right ascension of ascending node: 357.5473°
argument of perigee: 66.4693°
revolutions per day: 14.27262234
mean anomaly at epoch: 293.6696°
orbit number at epoch: 73451

The dashed part of the orbit path shows where the satellite is in the earth's shadow,  

DLR